Simultaneous Nadir Overpasses (SNOs) Predictions

Prediction of SNOs between FY3D and NOAA-19 Satellite Orbit:

Table of predicted SNOs for the next 14.0 days since TLE Epoch: 2/13/2025
Index Date (FY3D) Time (FY3D) Lat,Lon (FY3D) SZA (FY3D ) Date (NOAA-19) Time (NOAA-19) Lat,Lon (NOAA-19) SZA (NOAA-19 ) Distance(km) Time Diff (sec)
1 02/26/2025 14:37:03 -75.65, 146.55 95.94 02/26/2025 14:35:55 -75.65, 144.09 95.96 67.86 68
2 02/26/2025 15:27:56 76.02, -47.40 84.41 02/26/2025 15:26:43 76.02, -47.37 84.40 0.92 73
3 02/26/2025 16:18:41 -76.02, 119.90 95.61 02/26/2025 16:17:44 -76.00, 119.82 95.63 3.25 57
4 02/26/2025 17:09:26 76.03, -72.81 84.39 02/26/2025 17:08:40 76.01, -72.89 84.37 3.21 46
5 02/26/2025 18:00:11 -76.03, 94.49 95.62 02/26/2025 17:59:40 -76.04, 94.47 95.62 0.82 31
6 02/26/2025 18:50:56 76.04, -98.21 84.38 02/26/2025 18:50:36 76.04, -98.24 84.38 0.93 20
7 02/26/2025 19:41:41 -76.04, 69.09 95.64 02/26/2025 19:41:36 -76.07, 69.11 95.61 3.38 5
8 02/26/2025 20:32:26 76.05,-123.62 84.36 02/26/2025 20:32:32 76.08,-123.59 84.39 3.66 6
9 02/26/2025 21:23:11 -76.05, 43.68 95.66 02/26/2025 21:23:33 -76.06, 43.59 95.65 2.71 22
10 02/26/2025 22:13:56 76.06,-149.03 84.34 02/26/2025 22:14:29 76.07,-149.11 84.36 2.76 33
11 02/26/2025 23:04:42 -76.11, 18.11 95.63 02/26/2025 23:05:29 -76.10, 18.24 95.64 3.36 47
12 02/26/2025 23:55:27 76.11,-174.59 84.37 02/26/2025 23:56:25 76.11,-174.46 84.37 3.54 58
13 02/27/2025 00:46:12 -76.12, -7.29 95.65 02/27/2025 00:47:26 -76.09, -7.28 95.67 2.85 74
14 02/27/2025 01:37:07 76.57, 158.32 84.80 02/27/2025 01:38:12 76.54, 161.70 84.79 87.28 65



Historial Predications of SNOs between FY3D and NOAA-19
